カタログに戻る

STARLINK-30330

運用中通信VLEO
NORAD 57636·PAYLOAD·🇺🇸 United States

打ち上げ Aug 17, 2023 から Cape Canaveral Space Force Station

Loading…

次のパス (今後24時間)

TLE

最新Source: CelesTrak SupGP

元期: Sep 15, 2026, 01:47 UTC

1 57636C 23122E   26258.07479167  .00054680  00000+0  19805-2 0  2586
2 57636  42.9999 103.3011 0001496 276.3770 201.4556 15.27551065    13

AllMySatでSTARLINK-30330をリアルタイム追跡

Download on the App Store